Total_Precipitation_Accumulation
0.08 0.10 0.13 0.16 0.17 0.18 0.19 0.24 0.29 0.32 0.34 0.42 0.53 0.62 0.72 0.90 1.11 1.17 1.22 1.35 1.37 1.40 1.54 1.63 1.65 1.58 1.48 1.51 1.66 1.97 1.84 1.48 1.32 1.35 1.21 1.00 0.86 0.88 0.78 0.79 0.87 0.86 0.87
0.07 0.06 0.09 0.11 0.11 0.10 0.12 0.18 0.26 0.36 0.42 0.48 0.62 0.77 1.00 1.11 1.25 1.40 1.39 1.41 1.46 1.49 1.57 1.78 1.88 1.81 1.76 1.84 1.84 2.02 2.13 1.90 1.67 1.60 1.75 1.52 1.25 0.90 0.71 0.74 0.80 0.87 0.95
0.07 0.05 0.06 0.07 0.09 0.08 0.11 0.17 0.31 0.51 0.72 0.82 1.05 1.33 1.58 1.66 1.58 1.57 1.61 1.59 1.63 1.70 1.66 1.77 1.97 1.93 1.88 1.87 2.03 2.26 2.48 2.43 2.22 1.97 2.02 1.75 1.52 1.37 0.89 0.68 0.74 0.83 0.92
0.11 0.09 0.09 0.09 0.10 0.12 0.21 0.37 0.61 0.92 1.17 1.32 1.51 1.72 1.83 1.87 1.80 1.81 1.79 1.77 1.69 1.62 1.61 1.72 1.93 2.06 2.13 2.16 2.22 2.21 2.47 2.66 2.49 2.40 2.10 1.80 1.66 1.70 1.45 0.98 0.74 0.78 0.83
0.19 0.20 0.22 0.23 0.30 0.40 0.59 0.87 1.13 1.37 1.53 1.58 1.68 1.88 2.03 2.19 2.20 2.08 1.93 1.82 1.78 1.70 1.61 1.66 1.73 1.78 1.85 1.96 2.10 2.17 2.35 2.46 2.57 2.56 2.39 2.14 1.97 1.54 1.48 1.48 1.20 0.96 0.75
0.30 0.36 0.46 0.57 0.72 0.83 1.01 1.21 1.36 1.50 1.51 1.52 1.58 1.71 1.90 2.06 2.08 2.09 2.05 1.92 1.78 1.67 1.58 1.53 1.64 1.66 1.66 1.78 1.90 1.99 2.20 2.34 2.45 2.51 2.38 2.22 2.14 1.91 1.64 1.48 1.44 1.31 0.99
0.42 0.57 0.72 0.86 0.98 1.09 1.20 1.23 1.22 1.27 1.30 1.32 1.36 1.44 1.50 1.53 1.59 1.70 1.62 1.49 1.36 1.31 1.30 1.24 1.30 1.43 1.48 1.65 1.72 1.67 1.72 1.87 2.07 2.23 2.25 2.19 2.08 2.08 1.98 1.81 1.64 1.43 1.10
0.68 0.77 0.88 0.97 1.01 1.14 1.21 1.16 1.14 1.12 1.06 1.00 1.05 1.07 1.12 1.17 1.20 1.22 1.17 1.09 1.04 1.01 0.97 0.97 0.98 1.04 1.12 1.33 1.55 1.53 1.54 1.61 1.68 1.77 2.02 2.10 2.03 2.05 1.90 1.76 1.75 1.53 1.27
0.94 1.08 1.08 0.99 0.90 0.94 1.02 1.01 0.97 0.92 0.84 0.79 0.82 0.85 0.92 0.95 0.93 0.91 0.86 0.84 0.78 0.78 0.76 0.78 0.86 0.91 0.91 1.01 1.14 1.32 1.40 1.46 1.52 1.56 1.71 1.79 1.82 1.79 1.69 1.70 1.67 1.56 1.34
1.00 1.24 1.38 1.27 1.00 0.80 0.82 0.79 0.77 0.80 0.79 0.75 0.77 0.77 0.70 0.65 0.66 0.69 0.63 0.62 0.67 0.71 0.70 0.67 0.68 0.74 0.76 0.86 0.96 1.03 1.13 1.20 1.36 1.52 1.65 1.65 1.67 1.70 1.63 1.59 1.65 1.60 1.40
1.17 1.31 1.36 1.23 1.05 0.78 0.69 0.69 0.66 0.70 0.77 0.70 0.72 0.71 0.61 0.49 0.47 0.47 0.45 0.45 0.49 0.55 0.56 0.59 0.65 0.65 0.66 0.68 0.69 0.74 0.79 0.86 0.97 1.03 1.14 1.35 1.54 1.60 1.59 1.61 1.63 1.64 1.53
0.83 0.85 0.96 0.97 0.91 0.78 0.71 0.75 0.80 0.79 0.72 0.65 0.62 0.58 0.51 0.44 0.43 0.41 0.38 0.40 0.45 0.47 0.49 0.54 0.58 0.58 0.63 0.66 0.65 0.65 0.66 0.75 0.83 0.84 0.85 0.95 1.18 1.33 1.44 1.50 1.52 1.58 1.59
0.60 0.53 0.64 0.78 0.73 0.66 0.70 0.77 0.91 0.91 0.82 0.70 0.60 0.56 0.52 0.49 0.47 0.42 0.41 0.41 0.48 0.59 0.62 0.61 0.64 0.62 0.64 0.63 0.64 0.66 0.66 0.69 0.75 0.79 0.81 0.86 0.96 1.11 1.19 1.30 1.40 1.48 1.61
0.47 0.41 0.40 0.42 0.41 0.44 0.47 0.59 0.84 1.03 1.01 0.90 0.77 0.68 0.61 0.54 0.48 0.44 0.43 0.42 0.45 0.51 0.54 0.63 0.71 0.79 0.83 0.82 0.77 0.74 0.72 0.68 0.70 0.77 0.84 0.86 0.87 0.97 1.19 1.32 1.39 1.42 1.52
0.28 0.24 0.20 0.20 0.22 0.27 0.34 0.45 0.72 0.91 0.93 0.92 0.80 0.66 0.55 0.45 0.43 0.46 0.49 0.46 0.41 0.44 0.45 0.53 0.62 0.72 0.81 0.86 0.84 0.69 0.59 0.61 0.66 0.66 0.68 0.76 0.83 0.86 1.00 1.16 1.39 1.41 1.50
0.18 0.18 0.16 0.14 0.11 0.11 0.16 0.27 0.46 0.62 0.68 0.74 0.70 0.54 0.48 0.43 0.39 0.42 0.48 0.49 0.39 0.38 0.39 0.44 0.42 0.45 0.49 0.65 0.64 0.51 0.43 0.50 0.60 0.67 0.69 0.69 0.70 0.72 0.76 0.79 1.04 1.23 1.35
0.22 0.22 0.22 0.19 0.17 0.14 0.14 0.17 0.24 0.33 0.40 0.45 0.45 0.36 0.34 0.41 0.42 0.45 0.44 0.38 0.31 0.34 0.36 0.32 0.28 0.30 0.33 0.38 0.36 0.40 0.43 0.47 0.52 0.61 0.70 0.74 0.72 0.77 0.86 0.82 0.85 0.95 1.02
0.28 0.24 0.20 0.18 0.15 0.12 0.12 0.13 0.15 0.18 0.20 0.20 0.17 0.14 0.21 0.30 0.32 0.30 0.28 0.23 0.23 0.29 0.36 0.31 0.29 0.33 0.30 0.32 0.36 0.38 0.41 0.56 0.62 0.61 0.62 0.73 0.79 0.84 0.98 0.97 1.05 0.98 0.88
0.12 0.08 0.05 0.04 0.03 0.03 0.03 0.03 0.02 0.02 0.02 0.02 0.02 0.04 0.05 0.06 0.06 0.06 0.07 0.11 0.15 0.20 0.19 0.23 0.37 0.38 0.34 0.42 0.40 0.33 0.41 0.54 0.62 0.58 0.61 0.73 0.82 0.95 1.05 1.10 1.13 1.03 0.93
0.01 0.00 0.00 0.00 0.00 0.00 0.00 0.00 0.00 0.00 0.00 0.00 0.00 0.00 0.01 0.01 0.01 0.01 0.01 0.03 0.06 0.09 0.10 0.14 0.27 0.34 0.36 0.36 0.27 0.27 0.39 0.52 0.60 0.62 0.63 0.84 0.85 0.93 0.97 1.03 1.14 1.15 1.01
0.00 0.00 0.00 0.00 0.00 0.00 0.00 0.00 0.00 0.00 0.00 0.00 0.00 0.00 0.01 0.01 0.01 0.02 0.01 0.01 0.01 0.02 0.06 0.10 0.14 0.15 0.16 0.16 0.17 0.23 0.30 0.37 0.50 0.58 0.62 0.59 0.71 0.73 0.83 0.94 1.01 1.21 1.08
0.00 0.00 0.00 0.00 0.00 0.00 0.00 0.00 0.00 0.00 0.00 0.00 0.00 0.00 0.01 0.01 0.01 0.03 0.02 0.01 0.01 0.02 0.03 0.06 0.10 0.09 0.08 0.07 0.10 0.13 0.16 0.23 0.31 0.40 0.52 0.51 0.59 0.64 0.71 0.73 0.89 1.05 1.02
0.00 0.00 0.00 0.00 0.00 0.00 0.00 0.00 0.00 0.00 0.00 0.00 0.01 0.00 0.00 0.01 0.01 0.01 0.01 0.01 0.01 0.02 0.02 0.04 0.08 0.09 0.10 0.09 0.09 0.11 0.14 0.18 0.22 0.25 0.41 0.48 0.55 0.54 0.54 0.65 0.83 0.87 0.93
0.00 0.00 0.00 0.00 0.00 0.00 0.00 0.00 0.00 0.00 0.00 0.00 0.00 0.00 0.00 0.01 0.01 0.01 0.01 0.01 0.02 0.02 0.02 0.04 0.06 0.11 0.13 0.09 0.09 0.13 0.17 0.20 0.21 0.24 0.37 0.49 0.56 0.54 0.53 0.60 0.73 0.79 0.90
0.00 0.00 0.00 0.00 0.00 0.00 0.00 0.00 0.00 0.00 0.00 0.00 0.00 0.00 0.01 0.01 0.01 0.01 0.01 0.01 0.01 0.02 0.03 0.03 0.05 0.06 0.07 0.07 0.11 0.15 0.19 0.22 0.23 0.32 0.49 0.63 0.64 0.64 0.60 0.63 0.72 0.71 0.69
0.00 0.00 0.00 0.00 0.00 0.00 0.00 0.00 0.00 0.00 0.00 0.00 0.00 0.00 0.01 0.01 0.01 0.02 0.02 0.01 0.02 0.03 0.03 0.03 0.04 0.04 0.06 0.08 0.12 0.17 0.22 0.24 0.34 0.51 0.69 0.80 0.88 0.86 0.78 0.74 0.72 0.66 0.65